User: anonymous   Login
Location: Axtheid
(49.6213°N, 11.8205°E)
Time: 05:35:19
(UTC+00:00)
Language:

Cosmos 1634 Rocket - Orbit

View from above orbital plane
View from above orbital plane
View from above satellite
View from above satellite

Ground track
Ground track

The orbit data is extracted from the following two-line orbital elements,

1 15598U 85022B   21108.55954971 -.00000026  00000-0 -42438-4 0  9997
2 15598  82.9357 145.4645 0022952 146.8983 322.8256 13.76592918813025
Epoch (UTC): 18 April 2021 13:25:45
Eccentricity: 0.0022952
inclination: 82.9357°
perigee height: 959 km
apogee height: 993 km
right ascension of ascending node: 145.4645°
argument of perigee: 146.8983°
revolutions per day: 13.76592918
mean anomaly at epoch: 322.8256°
orbit number at epoch: 81302

The dashed part of the orbit path shows where the satellite is in the earth's shadow,  

DLR